Home > Weather > Hiroshima > Past weeks

Flag for Japan Weather for the Past 2 Weeks in Hiroshima, Japan

Now
62 °F

Sprinkles. Fog.


Feels Like: 62 °F
Forecast: 48 / 78 °F
Wind: 9 mph from Northeast

Location: Iwakuni Marine Corps Air Station

Current Time: May 6, 2016 at 12:55:45 PM

Latest Report: May 6, 2016 at 11:55 AM


Visibility: 1 mi

Pressure: 29.94 "Hg

Humidity: 93%

Dew Point: 60 °F

Location of HiroshimaLocation

Historic Weather in Hiroshima — Graph

°F

Hiroshima Temperature Yesterday

Maximum temperature yesterday: 73 °F (at 10:55 AM)
Minimum temperature yesterday: 64 °F (at 10:55 PM)
Average temperature yesterday: 68 °F

High & Low Weather Summary for the Past Weeks

 TemperatureHumidityPressure
High81 °F (May 2, 4:55 PM)97% (Apr 24, 3:55 AM)30.10 "Hg (Apr 24, 3:55 AM)
Low49 °F (Apr 30, 4:55 AM)26% (May 4, 5:55 PM)29.46 "Hg (Apr 28, 10:55 AM)
Average65 °F71%29.88 "Hg
* Reported Apr 21 10:55 AM — May 6 10:55 AM, Hiroshima, Weather by CustomWeather, © 2016

Note: Actual official high and low records may vary slightly from our data, if they occured in-between our weather recording intervals... More about our weather records

Advertising

Hiroshima Weather History for the Previous 24 Hours

Scroll right to see more
 ConditionsComfort  
Time TempWeatherWind HumidityBarometerVisibility
10:55 AM
Fri, May 6
63 °FRain showers. Fog.7 mph87%29.96 "Hg1 mi
9:55 AM66 °FSprinkles. Fog.5 mph73%29.96 "Hg2 mi
8:55 AM64 °FSprinkles. Mostly cloudy.No wind75%29.96 "HgN/A
7:55 AM64 °FSprinkles. Mostly cloudy.8 mph73%29.98 "HgN/A
6:55 AM63 °FMostly cloudy.3 mph65%29.96 "HgN/A
5:55 AM63 °FMostly cloudy.No wind68%29.96 "HgN/A
4:55 AM64 °FMostly cloudy.3 mph65%29.95 "HgN/A
3:55 AM62 °FMostly cloudy.5 mph70%29.94 "HgN/A
2:55 AM63 °FMostly cloudy.3 mph75%29.97 "HgN/A
1:55 AM63 °FMostly cloudy.No wind68%29.98 "HgN/A
12:55 AM64 °FMostly cloudy.5 mph68%30.00 "HgN/A
10:55 PM
Thu, May 5
64 °FMostly cloudy.3 mph73%30.04 "HgN/A
9:55 PM65 °FMostly cloudy.5 mph68%30.03 "HgN/A
8:55 PM65 °FMostly cloudy.3 mph63%30.03 "HgN/A
7:55 PM65 °FPartly cloudy.No wind68%30.03 "HgN/A
6:55 PM66 °FOvercast.5 mph70%30.02 "HgN/A
5:55 PM66 °FOvercast.5 mph68%30.00 "HgN/A
4:55 PM66 °FPartly sunny.No wind75%29.99 "HgN/A
3:55 PM70 °FPartly sunny.12 mph64%29.98 "HgN/A
2:55 PM72 °FPartly sunny.12 mph57%29.99 "HgN/A
1:55 PM70 °FPartly sunny.13 mph64%29.99 "HgN/A
12:55 PM72 °FPartly sunny.15 mph57%30.01 "HgN/A
Weather by CustomWeather, © 2016

See weather overviewHow to use our weather pages